Location: Wild Duck Observatory
(38.2456°N, 85.2898°W)
Time: 03:16:58
(UTC-05:00)

OTV 5 (USA 277) - Visible Passes

Search period start: 21 November 2017 00:00
Search period end: 01 December 2017 00:00
Orbit: 404 x 417 km, 43.0° (Epoch: 07 September)

Date Brightness Start Highest point End Pass type
(mag) Time Alt. Az. Time Alt. Az. Time Alt. Az.
21 Nov ? 05:44:28 41° S 05:44:28 41° S 05:47:08 10° SE visible
22 Nov ? 04:56:03 11° ESE 04:56:03 11° ESE 04:56:14 10° ESE visible
22 Nov ? 06:28:50 11° WSW 06:29:50 12° SW 06:31:04 10° SSW visible
23 Nov ? 05:40:29 14° S 05:40:29 14° S 05:41:18 10° S visible
29 Nov ? 18:48:17 10° SSE 18:49:09 12° SSE 18:49:09 12° SSE visible
30 Nov ? 19:32:10 10° SW 19:33:31 21° SSW 19:33:31 21° SSW visible
